| time (UTC) | temp F | wind direction | speed knots | gust knots | rain 1hr in | rain 24hr in | rain mn in | humidity % | barometer mb |
| 20260505061737 | 73 | 0.0 | 0.0 | 0.00 | 0.00 | 0.00 | 31 | 1009.6 | |
| 20260505060736 | 73 | 0.0 | 0.0 | 0.00 | 0.00 | 0.00 | 32 | 1009.6 | |
| 20260505055735 | 73 | 0.0 | 0.0 | 0.00 | 0.00 | 0.00 | 35 | 1009.3 | |
| 20260505054734 | 73 | 0.0 | 0.0 | 0.00 | 0.00 | 0.00 | 35 | 1009.3 | |
| 20260505053733 | 74 | 0.0 | 0.0 | 0.00 | 0.00 | 0.00 | 34 | 1009.3 | |
| 20260505052732 | 74 | 0.0 | 0.0 | 0.00 | 0.00 | 0.00 | 35 | 1009.6 | |
| 20260505051626 | 74 | 0.0 | 0.0 | 0.00 | 0.00 | 0.00 | 35 | 1009.6 | |
| 20260505050554 | 74 | 0.0 | 0.0 | 0.00 | 0.00 | 0.00 | 35 | 1010.0 | |
| 20260505041518 | 75 | 0.0 | 0.0 | 0.00 | 0.00 | 0.00 | 37 | 1009.7 | |
| 20260505040446 | 75 | 0.0 | 0.0 | 0.00 | 0.00 | 0.00 | 37 | 1009.7 | |
| 20260505035445 | 75 | 0.0 | 0.0 | 0.00 | 0.00 | 0.00 | 36 | 1009.7 | |
| 20260505034443 | 75 | 0.0 | 0.0 | 0.00 | 0.00 | 0.00 | 36 | 1009.4 | |
| 20260505033442 | 75 | 0.0 | 0.0 | 0.00 | 0.00 | 0.00 | 36 | 1009.4 | |
| 20260505032441 | 75 | 0.0 | 0.0 | 0.00 | 0.00 | 0.00 | 36 | 1009.4 | |
| 20260505031440 | 75 | 0.0 | 0.0 | 0.00 | 0.00 | 0.00 | 36 | 1009.0 | |
| 20260505030438 | 75 | 0.0 | 0.0 | 0.00 | 0.00 | 0.00 | 36 | 1008.7 | |
| 20260505025438 | 75 | 0.0 | 0.0 | 0.00 | 0.00 | 0.00 | 36 | 1008.7 | |
| 20260505024437 | 76 | 0.0 | 0.0 | 0.00 | 0.00 | 0.00 | 35 | 1008.7 | |
| 20260505023436 | 76 | 0.0 | 0.0 | 0.00 | 0.00 | 0.00 | 35 | 1009.0 | |
| 20260505022435 | 76 | 0.0 | 0.0 | 0.00 | 0.00 | 0.00 | 34 | 1008.7 | |
| 20260505021434 | 76 | 0.0 | 0.0 | 0.00 | 0.00 | 0.00 | 34 | 1008.7 | |
| 20260505020433 | 76 | 0.0 | 0.0 | 0.00 | 0.00 | 0.00 | 34 | 1008.7 | |
| 20260505015432 | 77 | 0.0 | 0.0 | 0.00 | 0.00 | 0.00 | 33 | 1008.7 | |
| 20260505014431 | 77 | 0.0 | 0.0 | 0.00 | 0.00 | 0.00 | 32 | 1008.7 | |
| 20260505013430 | 77 | 0.0 | 0.0 | 0.00 | 0.00 | 0.00 | 32 | 1008.4 | |
| 20260505012357 | 78 | 0.0 | 0.0 | 0.00 | 0.00 | 0.00 | 32 | 1008.7 | |
| 20260505011355 | 78 | 0.0 | 0.0 | 0.00 | 0.00 | 0.00 | 32 | 1008.7 | |
| 20260505010323 | 78 | 0.0 | 0.0 | 0.00 | 0.00 | 0.00 | 32 | 1008.7 | |
| 20260505005251 | 79 | 0.0 | 0.0 | 0.00 | 0.00 | 0.00 | 32 | 1008.7 | |
| 20260505004249 | 79 | 0.0 | 0.0 | 0.00 | 0.00 | 0.00 | 31 | 1008.7 | |
| 20260505003216 | 79 | 0.0 | 0.0 | 0.00 | 0.00 | 0.00 | 31 | 1008.8 | |
| 20260505002215 | 79 | 0.0 | 0.0 | 0.00 | 0.00 | 0.00 | 32 | 1008.8 | |
| 20260505001142 | 79 | 0.0 | 0.0 | 0.00 | 0.00 | 0.00 | 32 | 1008.8 | |
| 20260505000141 | 79 | 0.0 | 0.0 | 0.00 | 0.00 | 0.00 | 32 | 1008.8 | |
| 20260504235140 | 79 | 0.0 | 0.0 | 0.00 | 0.00 | 0.00 | 32 | 1009.1 | |
| 20260504234140 | 79 | 0.0 | 0.0 | 0.00 | 0.00 | 0.00 | 32 | 1009.1 | |
| 20260504233005 | 78 | 0.0 | 0.0 | 0.00 | 0.00 | 0.00 | 32 | 1009.1 | |
| 20260504232004 | 78 | 0.0 | 0.0 | 0.00 | 0.00 | 0.00 | 32 | 1009.1 | |
| 20260504231003 | 79 | 0.0 | 0.0 | 0.00 | 0.00 | 0.00 | 32 | 1009.1 | |
| 20260504225120 | 78 | 0.0 | 0.0 | 0.00 | 0.00 | 0.00 | 33 | 1009.1 | |
| 20260504224017 | 78 | 0.0 | 0.0 | 0.00 | 0.00 | 0.00 | 33 | 1009.1 | |
| 20260504223016 | 78 | 0.0 | 0.0 | 0.00 | 0.00 | 0.00 | 33 | 1009.5 | |
| 20260504221944 | 78 | 0.0 | 0.0 | 0.00 | 0.00 | 0.00 | 33 | 1009.9 | |
| 20260504220841 | 78 | 0.0 | 0.0 | 0.00 | 0.00 | 0.00 | 34 | 1009.9 | |
| 20260504215807 | 77 | 0.0 | 0.0 | 0.00 | 0.00 | 0.00 | 34 | 1009.9 | |
| 20260504214806 | 77 | 0.0 | 0.0 | 0.00 | 0.00 | 0.00 | 35 | 1010.2 | |
| 20260504211359 | 77 | 0.0 | 0.0 | 0.00 | 0.00 | 0.00 | 34 | 1010.9 | |
| 20260504210327 | 77 | 0.0 | 0.0 | 0.00 | 0.00 | 0.00 | 34 | 1010.9 | |
| 20260504205327 | 77 | 0.0 | 0.0 | 0.00 | 0.00 | 0.00 | 34 | 1010.5 | |
| 20260504204223 | 78 | 0.0 | 0.0 | 0.00 | 0.00 | 0.00 | 33 | 1010.9 | |
| 20260504203120 | 77 | 0.0 | 0.0 | 0.00 | 0.00 | 0.00 | 34 | 1010.9 | |
| 20260504202118 | 77 | 0.0 | 0.0 | 0.00 | 0.00 | 0.00 | 34 | 1010.9 | |
| 20260504201047 | 77 | 0.0 | 0.0 | 0.00 | 0.00 | 0.00 | 34 | 1010.6 | |
| 20260504200046 | 77 | 0.0 | 0.0 | 0.00 | 0.00 | 0.00 | 34 | 1010.9 | |
| 20260504195014 | 77 | 0.0 | 0.0 | 0.00 | 0.00 | 0.00 | 35 | 1010.6 | |
| 20260504194013 | 76 | 0.0 | 0.0 | 0.00 | 0.00 | 0.00 | 35 | 1010.6 | |
| 20260504193011 | 77 | 0.0 | 0.0 | 0.00 | 0.00 | 0.00 | 35 | 1010.9 | |
| 20260504192010 | 77 | 0.0 | 0.0 | 0.00 | 0.00 | 0.00 | 36 | 1011.3 | |
| 20260504191009 | 76 | 0.0 | 0.0 | 0.00 | 0.00 | 0.00 | 36 | 1011.3 | |
| 20260504190008 | 76 | 0.0 | 0.0 | 0.00 | 0.00 | 0.00 | 36 | 1010.9 | |
| 20260504185007 | 76 | 0.0 | 0.0 | 0.00 | 0.00 | 0.00 | 37 | 1010.9 | |
| 20260504184006 | 76 | 0.0 | 0.0 | 0.00 | 0.00 | 0.00 | 37 | 1010.9 | |
| 20260504183005 | 75 | 0.0 | 0.0 | 0.00 | 0.00 | 0.00 | 37 | 1010.9 | |
| 20260504182004 | 76 | 0.0 | 0.0 | 0.00 | 0.00 | 0.00 | 37 | 1011.3 | |
| 20260504181003 | 76 | 0.0 | 0.0 | 0.00 | 0.00 | 0.00 | 37 | 1011.6 | |
| 20260504180001 | 75 | 0.0 | 0.0 | 0.00 | 0.00 | 0.00 | 37 | 1011.6 | |
| 20260504175000 | 75 | 0.0 | 0.0 | 0.00 | 0.00 | 0.00 | 37 | 1011.2 | |
| 20260504173958 | 75 | 0.0 | 0.0 | 0.00 | 0.00 | 0.00 | 37 | 1010.6 | |
| 20260504172956 | 74 | 0.0 | 0.0 | 0.00 | 0.00 | 0.00 | 38 | 1010.6 | |
| 20260504171954 | 74 | 0.0 | 0.0 | 0.00 | 0.00 | 0.00 | 39 | 1011.0 | |
| 20260504170922 | 74 | 0.0 | 0.0 | 0.00 | 0.00 | 0.00 | 39 | 1011.0 | |
| 20260504150806 | 74 | 0.0 | 0.0 | 0.00 | 0.00 | 0.00 | 33 | 1010.4 | |
| 20260504140729 | 73 | 0.0 | 0.0 | 0.00 | 0.00 | 0.00 | 35 | 1010.2 | |
| 20260504130723 | 73 | 0.0 | 0.0 | 0.00 | 0.00 | 0.00 | 34 | 1010.1 | |
| 20260504110535 | 74 | 0.0 | 0.0 | 0.00 | 0.00 | 0.00 | 32 | 1009.5 | |
| 20260504100529 | 76 | 0.0 | 0.0 | 0.00 | 0.00 | 0.00 | 30 | 1009.6 | |
| 20260504081315 | 78 | 0.0 | 0.0 | 0.00 | 0.00 | 0.00 | 28 | 1009.3 | |
| 20260504080314 | 78 | 0.0 | 0.0 | 0.00 | 0.00 | 0.00 | 28 | 1009.3 | |
| 20260504070308 | 79 | 0.0 | 0.0 | 0.00 | 0.00 | 0.00 | 27 | 1009.6 |